CREW DRAGON 1 (46920 NORAD) Tracking and Keplerian Element Data

This shows tracking and keplerian element data for the satellite.

Feedback or suggestion? Click here.




ElementValue
Catalog46920
NameCREW DRAGON 1
Epoch Orbit102
Epoch Day327.60544722
Epoch Year2020
RAAN284.599
Inclination51.6459
Eccentricity0.0001797
Argument of Perigee66.8684
Mean Anonmoly99.2185
Mean Motion15.49038166
Decay Rate2.291E-05
L11 46920U 20084A 20327.60544722 .00002291 00000-0 49650-4 0 9991
L22 46920 51.6459 284.5990 0001797 66.8684 99.2185 15.49038166 1022

Live tracking and technical data element details for CREW DRAGON 1 (NORAD 46920). CREW DRAGON 1 can be tracked NOW for your location showing map with azimuth and elevation plus other details from your city location.

Track the satellite on the map from your city or location and see movement details for azimuth, elevation, latitude, longitude, range, height, and movement on the map or in text.







IsCatalogInMostPopularTable: catalog: 46920, numindb: -1

Insert: records affected: 1


GetName: 46920 CREW DRAGON 1

Hit Count: inserted at: Tue, 24 Nov 2020 12:10:44 GMT